Location: ?????????
(53.2086°N, 54.0693°E)
Time: 23:04:49
(UTC+00:00)

ALOS - Pass Details

Date: 08 December 2019
Orbit: 684 x 685 km, 97.8° (Epoch: 19 January)

Event Time Altitude Azimuth Distance (km) Brightness Sun altitude
Rises 12:51:39 0° 170° (S) 3,040 5.9 -6.4°
Reaches altitude 10° 12:53:53 10° 173° (S) 2,129 5.1 -6.7°
Maximum altitude 12:58:32 70° 257° (WSW) 732 2.7 -7.3°
Drops below altitude 10° 13:03:14 10° 342° (NNW) 2,146 4.7 -7.9°
Sets 13:05:30 0° 345° (NNW) 3,066 5.5 -8.2°
